Regional Weather Roundup
Issued by NWS Green Bay, WI

Home | Current Version | Previous Version | Graphics & Text | Print | Product List | Glossary Off
Versions: 1 2 3 4 5 6 7 8 9 10 11 12 13 14 15 16 17 18 19 20 21 22 23 24 25 26 27 28 29 30 31 32 33 34 35 36 37 38 39 40 41 42 43 44 45 46 47 48 49 50

000
ASUS43 KGRB 211410
RWRGRB

NORTH-CENTRAL AND NORTHEAST WISCONSIN REGIONAL WEATHER ROUNDUP
NATIONAL WEATHER SERVICE GREEN BAY WI
900 AM CDT THU AUG 21 2014

WIZ005-009-010>012-018-019-211500-
NORTH CENTRAL WISCONSIN

CITY           SKY/WX    TMP DP  RH WIND       PRES   REMARKS
IRONWOOD       NOT AVBL
MANITOWISH WTR CLOUDY    63  62  96 SE5       29.96F
ARBOR VITAE    CLOUDY    65  63  91 SE6       29.96F
EAGLE RIVER    CLOUDY    65  62  90 E6        29.96F
LAND O LAKES   CLOUDY    64  61  90 S5        30.00F
RHINELANDER    CLOUDY    62  61  96 E9        29.97F
PHILLIPS       CLOUDY    61  60  98 E5        29.92F
ANTIGO         CLOUDY    63  63 100 SE7       29.98S FOG
TOMAHAWK       CLOUDY    61  60  97 CALM      29.96F FOG
MERRILL        CLOUDY    63  63 100 E3        29.95F FOG
$$

WIZ013-073-211500-
NORTHEAST WISCONSIN

CITY           SKY/WX    TMP DP  RH WIND       PRES   REMARKS
IRON MOUNTAIN  CLOUDY    65  60  84 SE5       29.99S
MARINETTE      PTSUNNY   70  63  78 E7        29.96F
OCONTO         PTSUNNY   67  64  90 SE5       29.96F
$$

WIZ017-030-035>037-045-211500-
CENTRAL WISCONSIN

CITY           SKY/WX    TMP DP  RH WIND       PRES   REMARKS
MEDFORD        CLOUDY    62  62  99 E7        29.93F
WAUSAU         CLOUDY    64  62  93 SE7       29.94F FOG
MOSINEE        FOG       63  63 100 E3        29.96F VSB 1
MARSHFIELD     LGT RAIN  64  63  96 VRB5      29.95R FOG
WISC RAPIDS    LGT RAIN  65  64  97 E6        29.93F FOG
STEVENS POINT  RAIN      64  62  96 E6        29.94F
WAUPACA        CLOUDY    68  66  95 E5        29.95S FOG
SHAWANO        CLOUDY    66  65  94 NE5       29.97F FOG
CLINTONVILLE   CLOUDY    64  63  94 E6        29.96S
$$

WIZ038-039-048-051-211500-
FOX VALLEY

CITY           SKY/WX    TMP DP  RH WIND       PRES   REMARKS
NWS GREEN BAY  PTSUNNY   70  63  78 SE7       29.96F
APPLETON       PTSUNNY   68  63  83 SE9       29.96S
OSHKOSH        CLOUDY    70  64  81 E8        29.94F
FOND DU LAC    PTSUNNY   70  64  81 S8        29.94F
$$

WIZ022-050-052-211500-
EAST CENTRAL WISCONSIN

CITY           SKY/WX    TMP DP  RH WIND       PRES   REMARKS
STURGEON BAY   CLOUDY    64  63  94 E7        29.98F
MANITOWOC      PTSUNNY   68  65  90 SE9       29.98S
SHEBOYGAN      MOSUNNY   69  63  81 SE7       29.97S
$$

LMZ563-521-522-541>543-211500-
LAKESHORE

STATION/POSITION TIME  TEMP    WIND        PRES    VSBY  WAVE
                       AIR SEA DIR/SP/G                  HT/PER
                 (UTC) (F)     (DEG/KT/KT) (MB)    (MI)  (FT/S)
SHEBOYGAN LKSHOR 1400   66 66  100/  5/  5 1014.8F
KEWAUNEE LKSHORE 1400   66      60/  4/  9 1014.0F
NORTHPORT PIER   1400   65     130/  5/  6 1015.9S
N MID LAKE BUOY  1400   63 64  130/  6/  6 1015.5R         0
S GREEN BAY BUOY 1400   66     VRB  4      1015.7F
CHAMBERS ISLAND  1400   69     140/  1/  3 1015.9R
MENOMINEE LKSHOR 1400   67      90/  6/  7 1015.7F
$$


USA.gov is the U.S. government's official web portal to all federal, state and local government web resources and services.